Weather History for KFOT - May, 2013

Change the Weather History Date:

Friday, May 17, 2013

  Actual Average (KEKA) Record (KEKA)
Temperature  
Mean Temperature 54 °F 54 °F  
Max Temperature 60 °F 60 °F 73 °F (2008)
Min Temperature 48 °F 48 °F 41 °F (1965)
Degree Days  
Heating Degree Days 11 11  
Month to date heating degree days 202  
Since 1 July heating degree days 4023  
Cooling Degree Days 0 0  
Month to date cooling degree days 0  
Year to date cooling degree days 0  
Growing Degree Days 4 (Base 50)    
Moisture  
Dew Point 48 °F    
Average Humidity 84    
Maximum Humidity 100    
Minimum Humidity 55    
Precipitation  
Precipitation 0.00 in 0.05 in 1.31 in (1957)
Month to date precipitation 1.08  
Year to date precipitation 21.83  
Snow  
Snow 0.00 in 0.00 in 0.00 in (2002)
Month to date snowfall 0.0  
Since 1 July snowfall 0.2  
Snow Depth -    
Sea Level Pressure  
Sea Level Pressure 30.09 in    
Wind  
Wind Speed 5 mph (NW)    
Max Wind Speed 15 mph    
Max Gust Speed 21 mph    
Visibility 8 miles    
Events      
T = Trace of Precipitation, MM = Missing Value Source: NWS Daily Summary

Daily Weather History Graph

Daily Weather History Graph

Search for Another Location

Airport or City:

Trip Planner

Search our weather history database for the weather conditions in past years. The results will help you decide how hot, cold, wet, or windy it might be!

Date:

Astronomy

May. 17, 2013 Rise Set
Actual Time 5:57 AM PDT 8:28 PM PDT
Civil Twilight 5:26 AM PDT 9:00 PM PDT
Nautical Twilight 4:47 AM PDT 9:38 PM PDT
Astronomical Twilight 4:04 AM PDT 10:22 PM PDT
Moon 12:36 PM PDT (5/17) 1:23 AM PDT (5/17)
Length of Visible Light 15h 33m
Length of Day
14h 30m
Waxing Crescent, 46% of the Moon is Illuminated
May 17
Waxing Crescent
May 17
First Quarter
May 24
Full
May 31
Last Quarter
Jun 8
New

Hourly Weather History & Observations

Time (PDT) Temp. Dew Point Humidity Pressure Visibility Wind Dir Wind Speed Gust Speed Precip Events Conditions
12:15 AM 50.0 °F 48.2 °F 94% 30.06 in 10.0 mi West 3.5 mph - N/A   Overcast
12:35 AM 50.0 °F 48.2 °F 94% 30.06 in 10.0 mi Calm Calm - N/A   Overcast
12:55 AM 50.0 °F 50.0 °F 100% 30.05 in 10.0 mi Calm Calm - N/A   Overcast
1:15 AM 50.0 °F 50.0 °F 100% 30.05 in 9.0 mi Calm Calm - N/A   Overcast
1:35 AM 50.0 °F 50.0 °F 100% 30.05 in 8.0 mi Calm Calm - N/A   Overcast
1:55 AM 50.0 °F 50.0 °F 100% 30.04 in 6.0 mi Calm Calm - N/A   Overcast
2:15 AM 50.0 °F 50.0 °F 100% 30.04 in 6.0 mi Calm Calm - N/A   Overcast
2:35 AM 50.0 °F 50.0 °F 100% 30.04 in 5.0 mi Calm Calm - N/A   Overcast
2:55 AM 50.0 °F 50.0 °F 100% 30.04 in 5.0 mi Calm Calm - N/A   Overcast
3:15 AM 50.0 °F 50.0 °F 100% 30.04 in 4.0 mi Calm Calm - N/A   Overcast
3:35 AM 50.0 °F 50.0 °F 100% 30.04 in 2.0 mi Calm Calm - N/A   Overcast
3:55 AM 50.0 °F 50.0 °F 100% 30.04 in 3.0 mi Calm Calm - N/A   Overcast
4:15 AM 50.0 °F 50.0 °F 100% 30.04 in 1.5 mi NW 3.5 mph - N/A   Overcast
4:35 AM 50.0 °F 50.0 °F 100% 30.04 in 1.2 mi NW 5.8 mph - N/A   Overcast
4:55 AM 50.0 °F 50.0 °F 100% 30.04 in 0.8 mi NW 4.6 mph - N/A   Overcast
5:15 AM 50.0 °F 50.0 °F 100% 30.04 in 1.8 mi NW 4.6 mph - N/A   Overcast
5:35 AM 50.0 °F 50.0 °F 100% 30.04 in 1.0 mi NW 5.8 mph - N/A   Overcast
5:55 AM 50.0 °F 50.0 °F 100% 30.05 in 4.0 mi NW 4.6 mph - N/A   Overcast
6:15 AM 50.0 °F 50.0 °F 100% 30.05 in 1.8 mi NW 5.8 mph - N/A   Overcast
6:35 AM 50.0 °F 50.0 °F 100% 30.05 in 2.5 mi NW 6.9 mph - N/A   Overcast
6:55 AM 50.0 °F 50.0 °F 100% 30.05 in 5.0 mi NW 4.6 mph - N/A   Overcast
7:15 AM 50.0 °F 50.0 °F 100% 30.05 in 7.0 mi NW 3.5 mph - N/A   Overcast
7:35 AM 50.0 °F 50.0 °F 100% 30.06 in 10.0 mi NW 4.6 mph - N/A   Overcast
7:55 AM 51.8 °F 50.0 °F 94% 30.06 in 10.0 mi WNW 4.6 mph - N/A   Overcast
8:15 AM 51.8 °F 50.0 °F 94% 30.06 in 10.0 mi WNW 3.5 mph - N/A   Overcast
8:35 AM 51.8 °F 50.0 °F 94% 30.06 in 10.0 mi WNW 5.8 mph - N/A   Overcast
8:55 AM 53.6 °F 50.0 °F 88% 30.07 in 10.0 mi WNW 6.9 mph - N/A   Overcast
9:15 AM 53.6 °F 50.0 °F 88% 30.07 in 10.0 mi NW 5.8 mph - N/A   Overcast
9:35 AM 53.6 °F 48.2 °F 82% 30.07 in 10.0 mi WNW 5.8 mph - N/A   Overcast
9:55 AM 55.4 °F 48.2 °F 77% 30.07 in 10.0 mi NW 6.9 mph - N/A   Overcast
10:15 AM 55.4 °F 48.2 °F 77% 30.08 in 10.0 mi NW 6.9 mph - N/A   Overcast
10:35 AM 55.4 °F 46.4 °F 72% 30.08 in 10.0 mi NNW 9.2 mph - N/A   Overcast
10:55 AM 55.4 °F 46.4 °F 72% 30.09 in 10.0 mi NNW 10.4 mph - N/A   Overcast
11:15 AM 55.4 °F 46.4 °F 72% 30.09 in 10.0 mi NNW 10.4 mph - N/A   Overcast
11:35 AM 57.2 °F 46.4 °F 67% 30.09 in 10.0 mi NNW 11.5 mph 17.3 mph N/A   Overcast
11:55 AM 57.2 °F 46.4 °F 67% 30.09 in 10.0 mi NNW 12.7 mph - N/A   Overcast
12:15 PM 59.0 °F 44.6 °F 59% 30.10 in 10.0 mi WNW 10.4 mph 16.1 mph N/A   Mostly Cloudy
12:35 PM 59.0 °F 44.6 °F 59% 30.09 in 10.0 mi NW 12.7 mph 16.1 mph N/A   Overcast
12:55 PM 59.0 °F 44.6 °F 59% 30.09 in 10.0 mi NNW 13.8 mph 17.3 mph N/A   Mostly Cloudy
1:15 PM 60.8 °F 44.6 °F 55% 30.10 in 10.0 mi NNW 11.5 mph 17.3 mph N/A   Partly Cloudy
1:35 PM 59.0 °F 46.4 °F 63% 30.10 in 10.0 mi NNW 12.7 mph 17.3 mph N/A   Mostly Cloudy
1:55 PM 59.0 °F 46.4 °F 63% 30.10 in 10.0 mi WNW 12.7 mph 18.4 mph N/A   Overcast
2:15 PM 59.0 °F 46.4 °F 63% 30.11 in 10.0 mi WNW 13.8 mph - N/A   Overcast
2:35 PM 59.0 °F 46.4 °F 63% 30.11 in 10.0 mi NNW 11.5 mph - N/A   Mostly Cloudy
2:55 PM 59.0 °F 46.4 °F 63% 30.11 in 10.0 mi NNW 13.8 mph 19.6 mph N/A   Mostly Cloudy
3:15 PM 59.0 °F 48.2 °F 67% 30.10 in 10.0 mi NW 12.7 mph 20.7 mph N/A   Mostly Cloudy
3:35 PM 59.0 °F 48.2 °F 67% 30.10 in 10.0 mi NW 13.8 mph 19.6 mph N/A   Mostly Cloudy
3:55 PM 60.8 °F 48.2 °F 63% 30.10 in 10.0 mi WNW 13.8 mph 17.3 mph N/A   Mostly Cloudy
4:15 PM 59.0 °F 46.4 °F 63% 30.11 in 10.0 mi NNW 15.0 mph - N/A   Mostly Cloudy
4:35 PM 59.0 °F 46.4 °F 63% 30.12 in 10.0 mi NW 13.8 mph - N/A   Overcast
4:55 PM 57.2 °F 44.6 °F 63% 30.13 in 10.0 mi NW 12.7 mph - N/A   Overcast
5:15 PM 57.2 °F 46.4 °F 67% 30.13 in 10.0 mi NW 11.5 mph 16.1 mph N/A   Overcast
5:35 PM 57.2 °F 46.4 °F 67% 30.13 in 10.0 mi NW 13.8 mph - N/A   Overcast
5:55 PM 57.2 °F 46.4 °F 67% 30.13 in 10.0 mi NNW 11.5 mph - N/A   Overcast
6:15 PM 55.4 °F 44.6 °F 67% 30.12 in 10.0 mi NNW 11.5 mph - N/A   Overcast
6:35 PM 55.4 °F 46.4 °F 72% 30.12 in 10.0 mi NW 10.4 mph - N/A   Scattered Clouds
6:55 PM 57.2 °F 46.4 °F 67% 30.12 in 10.0 mi NNW 11.5 mph - N/A   Clear
7:15 PM 55.4 °F 46.4 °F 72% 30.12 in 10.0 mi NNW 9.2 mph - N/A   Scattered Clouds
7:35 PM 55.4 °F 48.2 °F 77% 30.12 in 10.0 mi NW 9.2 mph - N/A   Partly Cloudy
7:55 PM 53.6 °F 46.4 °F 77% 30.12 in 10.0 mi NW 9.2 mph - N/A   Clear
8:15 PM 51.8 °F 48.2 °F 88% 30.13 in 10.0 mi NW 8.1 mph - N/A   Clear
8:35 PM 50.0 °F 48.2 °F 94% 30.13 in 10.0 mi NW 8.1 mph - N/A   Clear
8:55 PM 50.0 °F 48.2 °F 94% 30.14 in 10.0 mi NW 8.1 mph - N/A   Clear
9:15 PM 50.0 °F 48.2 °F 94% 30.15 in 10.0 mi WNW 6.9 mph - N/A   Clear
9:35 PM 48.2 °F 48.2 °F 100% 30.15 in 10.0 mi WNW 5.8 mph - N/A   Clear
9:55 PM 48.2 °F 48.2 °F 100% 30.16 in 10.0 mi WNW 5.8 mph - N/A   Clear
10:15 PM 48.2 °F 48.2 °F 100% 30.16 in 10.0 mi NW 5.8 mph - N/A   Clear
10:35 PM 48.2 °F 48.2 °F 100% 30.17 in 10.0 mi WNW 6.9 mph - N/A   Clear
10:55 PM 48.2 °F 48.2 °F 100% 30.17 in 10.0 mi NW 5.8 mph - N/A   Clear
11:15 PM 48.2 °F 48.2 °F 100% 30.18 in 10.0 mi NW 4.6 mph - N/A   Partly Cloudy
11:35 PM 48.2 °F 48.2 °F 100% 30.18 in 3.0 mi WNW 4.6 mph - N/A   Partly Cloudy
11:55 PM 48.2 °F 48.2 °F 100% 30.18 in 0.5 mi WNW 3.5 mph - N/A   Overcast